Showing default

CYGFM03, 41891

Orbit data source: Space-Track

CYGFM03, 41891 is an American payload satellite in LEO that was launched on Thu, 15 Dec 2016 UTC via a PEGASUS XL launch vehicle from the Pegasus Launch, Eastern Range Air Space (ERAS). Payloads include a variety of satellites, spacecraft, and rockets equipped with specific instruments for various scientific and technological missions. These include communications satellites like Starlink; space stations such as the ISS; scientific satellites like the Hubble; Earth observation satellites from companies like Planet Labs, Umbra, and HawkEye 360; GPS; miniature CubeSats for education and research; and military/defense satellites.

Loading next visibility...
CYGFM03 details
Identifier
41891, 2016-078H
Orbit
LEO
Last TLE update6 hours ago
Origin
Flag of USLARCN/SWRIB (US)
ManufacturerSST-US
MissionExtended mission Civil Science
Bus & MotorCYGNSS, Unknown motor
Mass29 kg wet, 29 kg dry
Launch date (UTC)
2016-12-15 (8 years ago)
Launch vehicle
PEGASUS XL
Launch site
Pegasus Launch, Eastern Range Air Space (ERAS)
Object type
Payload
Rocket body
Debris
Shape & HBRHalf Hex Cyl + 2 Pan, 1.7 m
Radar Cross Section0.450 m², Medium (>0.1 m² and < 1m²)

Expand to show TLE details & history

TLE from 6 hours ago
0 CYGFM03
1 41891U 16078H   24361.55318937  .00023103  00000-0  65226-3 0  9995
2 41891  34.9440 139.7660 0008070 160.8565 199.2457 15.35412050445676
Epoch: 2024-12-26T13:16Z
Definitive object data (Epoch: 2024-12-26T13:16:35.561Z)
Latitude-0.00001°
Longitude-154.91312°
Altitude463.801 km
Speed7.634 km/s
True Right ascension09h 19m 03s
True Declination0° 00' 00"
Sunlit
Object was in full shadow at TLE epoch
Visualization TLE readout
Latitude-33.74736°
Longitude95.50393°
Altitude468.456 km
Speed7.633 km/s
Apparent Right ascension04h 02m 14s
Apparent Declination-41° 29' 59"
Sunlit
Object is in daylight
Visualization observer readout
Local Sidereal Time18:26:21
Azimuth105.185° ESE
Elevation-62.839°
Doppler factor1
Orbital elements
Apogee altitude468.494 km
Perigee altitude457.453 km
Semi-major axis6,841.11 km
Eccentricity0.000807
Inclination34.944°
RAAN139.766°
Arg. of periapsis160.8565°
True anomaly199.21525°
Mean anomaly199.2457°
Eccentric anomaly199.23047°
Mean motion3.83578 °/min
BSTAR0.00065226
Orbital period93.85 mins
Loading maneuver chart data...
Loading historical data...
Loading historical data...
Loading historical data...
Loading historical data...
Loading historical data...
Loading historical data...
Loading historical data...

CYGFM03 Visibility forecast

Observer location: undefined°, undefined

Span
Click to sort rows by Start time (UTC) header in descending order
Start Az.
Max El. time (UTC)
Max El. Az.
Max El.
End time (UTC)
End Az.
5 mins2024-12-27 14:33:45.539Z221.764° SW2024-12-27 14:35:45.539Z163.638° S28.279°2024-12-27 14:38:45.539Z107.53° ESE
4 mins2024-12-27 16:12:45.539Z230.398° WSW2024-12-27 16:13:45.539Z202.415° SSW27.837°2024-12-27 16:16:45.539Z127.708° SE
|